EW7168 Weather Reports


time (UTC)temp
F
wind
direction
speed
knots
gust
knots
rain 1hr
in
rain 24hr
in
rain mn
in
humidity
%
barometer
mb
20240416044549 49 9 2.6 9.6 0.00 0.00 0.00 40 1001.1
20240416043049 49 281 2.6 11.3 0.00 0.00 0.00 39 1001.3
20240416041550 49 253 5.2 14.8 0.00 0.00 0.00 39 1001.8
20240416040109 49 256 1.7 8.7 0.00 0.00 0.00 39 1002.3
20240416034630 49 306 2.6 7.8 0.00 0.00 0.00 39 1002.4
20240416033054 49 301 3.5 10.4 0.00 0.00 0.00 39 1002.5
20240416031601 49 273 1.7 7.8 0.00 0.00 0.00 38 1002.6
20240416030051 50 296 3.5 11.3 0.00 0.00 0.00 39 1002.4
20240416024600 50 313 3.5 10.4 0.00 0.00 0.00 39 1002.1
20240416023105 50 68 5.2 13.9 0.00 0.00 0.00 38 1001.7
20240416021550 51 317 4.3 15.6 0.00 0.00 0.00 37 1001.9
20240416020055 51 22 5.2 13.9 0.00 0.00 0.00 37 1001.8
20240416014553 52 51 7.8 18.2 0.00 0.00 0.00 37 1001.9
20240416013053 52 257 7.8 18.2 0.00 0.00 0.00 38 1001.8
20240416011553 53 288 8.7 26.1 0.00 0.00 0.00 36 1001.3
20240416010119 55 222 6.1 16.5 0.00 0.00 0.00 31 1000.7
20240416004553 57 284 6.1 19.1 0.00 0.00 0.00 29 1000.5
20240416003104 57 316 4.3 15.6 0.00 0.00 0.00 28 1000.5
20240416001552 58 300 5.2 14.8 0.00 0.00 0.00 26 1000.1
20240416000055 60 264 5.2 11.3 0.00 0.00 0.00 24 999.5
20240415234552 62 352 7.0 20.9 0.00 0.00 0.00 20 998.9
20240415233055 65 208 4.3 9.6 0.00 0.00 0.00 9 998.1
20240415231555 65 192 3.5 10.4 0.00 0.00 0.00 9 998.0
20240415230054 66 192 6.1 11.3 0.00 0.00 0.00 9 998.0
20240415224553 67 252 6.1 19.1 0.00 0.00 0.00 9 997.8
20240415223055 68 184 6.1 19.1 0.00 0.00 0.00 9 997.6
20240415221605 68 225 9.6 24.3 0.00 0.00 0.00 8 997.4
20240415220054 69 209 6.1 12.2 0.00 0.00 0.00 9 997.3
20240415214551 70 207 6.1 16.5 0.00 0.00 0.00 8 997.3
20240415213052 69 229 8.7 18.2 0.00 0.00 0.00 8 997.3
20240415211551 69 193 7.8 17.4 0.00 0.00 0.00 9 997.3
20240415210057 69 185 10.4 20.9 0.00 0.00 0.00 9 997.3
20240415204552 70 185 6.1 13.9 0.00 0.00 0.00 10 997.5
20240415203052 69 190 7.0 19.1 0.00 0.00 0.00 10 997.5
20240415201556 71 169 9.6 19.1 0.00 0.00 0.00 8 997.7
20240415200056 72 150 8.7 18.2 0.00 0.00 0.00 8 997.5
20240415194549 72 193 9.6 20.9 0.00 0.00 0.00 7 998.1
20240415193051 72 176 7.8 19.1 0.00 0.00 0.00 7 998.1
20240415191551 73 205 8.7 17.4 0.00 0.00 0.00 6 998.2
20240415190049 72 163 7.0 13.0 0.00 0.00 0.00 7 998.6
20240415184608 73 145 5.2 14.8 0.00 0.00 0.00 8 998.9
20240415183053 71 193 8.7 14.8 0.00 0.00 0.00 8 999.3
20240415181552 72 173 5.2 10.4 0.00 0.00 0.00 11 999.5
20240415180108 72 317 1.7 5.2 0.00 0.00 0.00 10 1000.1
20240415174550 70 282 1.7 7.0 0.00 0.00 0.00 10 1000.7
20240415173059 70 262 3.5 7.8 0.00 0.00 0.00 11 1001.1
20240415171554 71 99 1.7 6.1 0.00 0.00 0.00 12 1001.4
20240415170103 69 184 3.5 11.3 0.00 0.00 0.00 12 1001.7
20240415164554 69 194 2.6 7.8 0.00 0.00 0.00 12 1001.9
20240415163051 68 197 3.5 9.6 0.00 0.00 0.00 14 1002.1
20240415161554 68 190 4.3 10.4 0.00 0.00 0.00 15 1002.4
20240415160052 67 144 3.5 9.6 0.00 0.00 0.00 15 1002.6
20240415154554 66 201 3.5 7.0 0.00 0.00 0.00 17 1003.0
20240415153053 65 165 3.5 8.7 0.00 0.00 0.00 17 1003.4
20240415151555 63 191 4.3 9.6 0.00 0.00 0.00 19 1003.6
20240415150052 61 261 3.5 9.6 0.00 0.00 0.00 23 1003.8
20240415144550 59 199 0.0 3.5 0.00 0.00 0.00 23 1004.0
20240415143105 57 242 0.0 1.7 0.00 0.00 0.00 25 1004.3
20240415141554 56 0 0.9 2.6 0.00 0.00 0.00 26 1004.4
20240415140053 56 0 0.0 0.0 0.00 0.00 0.00 26 1004.4
20240415134552 53 0 0.0 0.0 0.00 0.00 0.00 29 1004.6
20240415133051 50 0 0.0 0.0 0.00 0.00 0.00 32 1004.5
20240415131550 49 254 0.9 1.7 0.00 0.00 0.00 34 1004.5
20240415130052 47 0 0.0 3.5 0.00 0.00 0.00 33 1004.5
20240415124554 47 89 0.9 5.2 0.00 0.00 0.00 35 1004.4
20240415123056 46 0 0.9 2.6 0.00 0.00 0.00 34 1004.0
20240415121604 47 0 0.9 5.2 0.00 0.00 0.00 34 1004.1
20240415120055 46 255 0.9 2.6 0.00 0.00 0.00 35 1004.4
20240415114603 46 265 0.0 1.7 0.00 0.00 0.00 34 1004.5
20240415113101 47 252 0.9 2.6 0.00 0.00 0.00 33 1004.7
20240415111606 48 255 0.9 2.6 0.00 0.00 0.00 32 1004.7
20240415110052 48 263 0.9 2.6 0.00 0.00 0.00 34 1004.8
20240415104553 48 0 0.0 2.6 0.00 0.00 0.00 35 1004.8
20240415103052 49 263 0.0 2.6 0.00 0.00 0.00 32 1004.7
20240415101601 51 265 0.0 2.6 0.00 0.00 0.00 29 1004.8
20240415100051 51 220 0.0 3.5 0.00 0.00 0.00 30 1004.9
20240415094605 51 220 0.9 5.2 0.00 0.00 0.00 32 1005.1
20240415093050 50 223 1.7 6.1 0.00 0.00 0.00 35 1005.0
20240415091558 50 279 1.7 2.6 0.00 0.00 0.00 37 1005.0
20240415090053 51 0 0.9 2.6 0.00 0.00 0.00 34 1005.5
20240415084555 50 207 0.9 3.5 0.00 0.00 0.00 37 1005.6
20240415083055 50 0 0.0 0.0 0.00 0.00 0.00 38 1006.0
20240415081554 52 0 0.0 0.0 0.00 0.00 0.00 34 1005.9
20240415080052 55 0 0.9 1.7 0.00 0.00 0.00 32 1006.2
20240415074552 58 0 0.0 3.5 0.00 0.00 0.00 28 1006.4
20240415073053 56 184 1.7 2.6 0.00 0.00 0.00 28 1006.5
20240415071550 55 0 0.0 2.6 0.00 0.00 0.00 33 1006.8
20240415070053 56 237 0.9 2.6 0.00 0.00 0.00 31 1007.0
20240415064557 57 202 0.9 2.6 0.00 0.00 0.00 28 1007.0
20240415063051 57 227 0.0 2.6 0.00 0.00 0.00 30 1007.2
20240415061600 59 202 0.9 1.7 0.00 0.00 0.00 26 1007.4
20240415060051 61 193 0.9 2.6 0.00 0.00 0.00 24 1007.5
20240415054552 62 186 0.9 3.5 0.00 0.00 0.00 22 1007.5
20240415053054 63 178 1.7 4.3 0.00 0.00 0.00 22 1007.6
20240415051551 65 184 2.6 7.8 0.00 0.00 0.00 20 1007.7
20240415050055 65 130 2.6 8.7 0.00 0.00 0.00 20 1007.9